| time (UTC) | temp F | wind direction | speed MPH | gust MPH | rain 1hr in | rain 24hr in | rain mn in | humidity % | barometer mb |
| 20260503173714 | 54 | 170 | 2.0 | 12.0 | 0.00 | 0.00 | 0.00 | 41 | 1019.4 |
| 20260503173210 | 54 | 247 | 12.0 | 20.0 | 0.00 | 0.00 | 0.00 | 40 | 1019.7 |
| 20260503172707 | 54 | 222 | 6.0 | 10.0 | 0.00 | 0.00 | 0.00 | 41 | 1019.5 |
| 20260503172204 | 54 | 264 | 6.0 | 21.0 | 0.00 | 0.00 | 0.00 | 38 | 1019.6 |
| 20260503171700 | 54 | 246 | 14.0 | 14.0 | 0.00 | 0.00 | 0.00 | 41 | 1019.5 |
| 20260503171158 | 53 | 218 | 5.0 | 19.0 | 0.00 | 0.00 | 0.00 | 40 | 1019.6 |
| 20260503170654 | 54 | 253 | 11.0 | 12.0 | 0.00 | 0.00 | 0.00 | 42 | 1019.6 |
| 20260503170151 | 53 | 221 | 12.0 | 22.0 | 0.00 | 0.00 | 0.00 | 40 | 1019.8 |
| 20260503160113 | 51 | 297 | 12.0 | 19.0 | 0.00 | 0.00 | 0.00 | 45 | 1020.5 |
| 20260503150542 | 48 | 254 | 4.0 | 16.0 | 0.00 | 0.00 | 0.00 | 48 | 1020.6 |
| 20260503130932 | 43 | 257 | 0.0 | 12.0 | 0.00 | 0.00 | 0.00 | 74 | 1020.8 |
| 20260503130430 | 42 | 270 | 5.0 | 6.0 | 0.00 | 0.00 | 0.00 | 76 | 1021.0 |
| 20260503110823 | 35 | 252 | 3.0 | 5.0 | 0.00 | 0.00 | 0.00 | 92 | 1020.0 |
| 20260503110319 | 35 | 210 | 4.0 | 5.0 | 0.00 | 0.00 | 0.00 | 92 | 1020.0 |
| 20260503100246 | 35 | 234 | 5.0 | 6.0 | 0.00 | 0.00 | 0.00 | 92 | 1019.1 |
| 20260503090205 | 35 | 219 | 2.0 | 5.0 | 0.00 | 0.00 | 0.00 | 91 | 1018.9 |
| 20260503081138 | 35 | 210 | 0.0 | 3.0 | 0.00 | 0.00 | 0.00 | 89 | 1018.9 |
| 20260503080634 | 35 | 212 | 3.0 | 5.0 | 0.00 | 0.00 | 0.00 | 88 | 1018.9 |
| 20260503080131 | 35 | 279 | 3.0 | 5.0 | 0.00 | 0.00 | 0.00 | 88 | 1018.9 |
| 20260503072608 | 37 | 254 | 3.0 | 6.0 | 0.00 | 0.00 | 0.00 | 86 | 1018.6 |
| 20260503072105 | 37 | 259 | 2.0 | 4.0 | 0.00 | 0.00 | 0.00 | 86 | 1018.5 |
| 20260503071602 | 37 | 255 | 5.0 | 7.0 | 0.00 | 0.00 | 0.00 | 86 | 1018.4 |
| 20260503071059 | 37 | 273 | 3.0 | 5.0 | 0.00 | 0.00 | 0.00 | 85 | 1018.4 |
| 20260503070555 | 37 | 246 | 4.0 | 7.0 | 0.00 | 0.00 | 0.00 | 85 | 1018.5 |
| 20260503055014 | 39 | 311 | 1.0 | 6.0 | 0.00 | 0.00 | 0.00 | 82 | 1018.6 |
| 20260503054510 | 39 | 233 | 3.0 | 6.0 | 0.00 | 0.00 | 0.00 | 82 | 1018.6 |
| 20260503054008 | 39 | 263 | 5.0 | 7.0 | 0.00 | 0.00 | 0.00 | 82 | 1018.6 |
| 20260503053506 | 39 | 236 | 5.0 | 5.0 | 0.00 | 0.00 | 0.00 | 82 | 1018.6 |
| 20260503053002 | 39 | 233 | 4.0 | 6.0 | 0.00 | 0.00 | 0.00 | 82 | 1018.6 |
| 20260503052459 | 39 | 246 | 4.0 | 4.0 | 0.00 | 0.00 | 0.00 | 82 | 1018.3 |
| 20260503051955 | 39 | 226 | 3.0 | 5.0 | 0.00 | 0.00 | 0.00 | 82 | 1018.6 |
| 20260503051451 | 39 | 260 | 3.0 | 4.0 | 0.00 | 0.00 | 0.00 | 82 | 1018.5 |
| 20260503050949 | 39 | 240 | 4.0 | 4.0 | 0.00 | 0.00 | 0.00 | 82 | 1018.6 |
| 20260503050445 | 39 | 285 | 3.0 | 4.0 | 0.00 | 0.00 | 0.00 | 82 | 1018.6 |
| 20260503045943 | 39 | 297 | 3.0 | 6.0 | 0.00 | 0.00 | 0.00 | 81 | 1018.7 |
| 20260503045440 | 39 | 262 | 5.0 | 5.0 | 0.00 | 0.00 | 0.00 | 81 | 1018.7 |
| 20260503044936 | 39 | 266 | 4.0 | 5.0 | 0.00 | 0.00 | 0.00 | 81 | 1018.5 |
| 20260503044433 | 39 | 203 | 0.0 | 5.0 | 0.00 | 0.00 | 0.00 | 81 | 1018.7 |
| 20260503043931 | 39 | 249 | 1.0 | 3.0 | 0.00 | 0.00 | 0.00 | 81 | 1018.6 |
| 20260503043427 | 39 | 255 | 0.0 | 4.0 | 0.00 | 0.00 | 0.00 | 80 | 1018.9 |
| 20260503042924 | 39 | 285 | 0.0 | 4.0 | 0.00 | 0.00 | 0.00 | 80 | 1018.6 |
| 20260503042420 | 39 | 270 | 1.0 | 3.0 | 0.00 | 0.00 | 0.00 | 80 | 1018.6 |
| 20260503041917 | 40 | 299 | 2.0 | 4.0 | 0.00 | 0.00 | 0.00 | 79 | 1018.7 |
| 20260503041414 | 40 | 8 | 2.0 | 3.0 | 0.00 | 0.00 | 0.00 | 79 | 1018.7 |
| 20260503040911 | 40 | 14 | 0.0 | 3.0 | 0.00 | 0.00 | 0.00 | 79 | 1018.6 |
| 20260503040409 | 40 | 241 | 2.0 | 3.0 | 0.00 | 0.00 | 0.00 | 79 | 1018.5 |
| 20260503035906 | 40 | 5 | 0.0 | 2.0 | 0.00 | 0.00 | 0.00 | 79 | 1018.7 |
| 20260503035402 | 40 | 262 | 1.0 | 2.0 | 0.00 | 0.00 | 0.00 | 78 | 1018.6 |
| 20260503034859 | 40 | 323 | 2.0 | 4.0 | 0.00 | 0.00 | 0.00 | 79 | 1018.7 |
| 20260503034357 | 40 | 6 | 1.0 | 1.0 | 0.00 | 0.00 | 0.00 | 79 | 1018.7 |
| 20260503033854 | 40 | 351 | 2.0 | 4.0 | 0.00 | 0.00 | 0.00 | 78 | 1018.8 |
| 20260503033352 | 40 | 241 | 2.0 | 3.0 | 0.00 | 0.00 | 0.00 | 78 | 1018.7 |
| 20260503032849 | 40 | 273 | 3.0 | 4.0 | 0.00 | 0.00 | 0.00 | 78 | 1018.7 |
| 20260503032348 | 40 | 114 | 0.0 | 2.0 | 0.00 | 0.00 | 0.00 | 78 | 1018.8 |
| 20260503031845 | 40 | 17 | 3.0 | 3.0 | 0.00 | 0.00 | 0.00 | 78 | 1018.6 |
| 20260503031343 | 40 | 49 | 0.0 | 2.0 | 0.00 | 0.00 | 0.00 | 79 | 1018.7 |
| 20260503030839 | 40 | 246 | 0.0 | 2.0 | 0.00 | 0.00 | 0.00 | 78 | 1018.9 |
| 20260503030335 | 40 | 180 | 0.0 | 2.0 | 0.00 | 0.00 | 0.00 | 78 | 1018.8 |
| 20260503025832 | 40 | 254 | 0.0 | 2.0 | 0.00 | 0.00 | 0.00 | 77 | 1018.6 |
| 20260503025330 | 40 | 255 | 1.0 | 4.0 | 0.00 | 0.00 | 0.00 | 76 | 1018.7 |
| 20260503024826 | 40 | 19 | 2.0 | 3.0 | 0.00 | 0.00 | 0.00 | 76 | 1018.7 |
| 20260503024323 | 40 | 0 | 3.0 | 4.0 | 0.00 | 0.00 | 0.00 | 76 | 1018.8 |
| 20260503023820 | 40 | 37 | 6.0 | 8.0 | 0.00 | 0.00 | 0.00 | 76 | 1018.6 |
| 20260503023317 | 40 | 45 | 3.0 | 4.0 | 0.00 | 0.00 | 0.00 | 76 | 1018.8 |
| 20260503022814 | 40 | 27 | 3.0 | 4.0 | 0.00 | 0.00 | 0.00 | 76 | 1018.7 |
| 20260503022314 | 40 | 36 | 2.0 | 3.0 | 0.00 | 0.00 | 0.00 | 76 | 1018.7 |
| 20260503021811 | 40 | 33 | 2.0 | 3.0 | 0.00 | 0.00 | 0.00 | 75 | 1018.7 |
| 20260503021307 | 40 | 70 | 2.0 | 3.0 | 0.00 | 0.00 | 0.00 | 75 | 1018.9 |
| 20260503020805 | 40 | 29 | 4.0 | 4.0 | 0.00 | 0.00 | 0.00 | 75 | 1018.6 |
| 20260503020302 | 41 | 90 | 3.0 | 4.0 | 0.00 | 0.00 | 0.00 | 75 | 1019.0 |
| 20260503015758 | 41 | 54 | 4.0 | 4.0 | 0.00 | 0.00 | 0.00 | 74 | 1018.9 |
| 20260503015255 | 41 | 61 | 2.0 | 3.0 | 0.00 | 0.00 | 0.00 | 74 | 1018.7 |
| 20260503014751 | 41 | 12 | 4.0 | 5.0 | 0.00 | 0.00 | 0.00 | 74 | 1018.9 |
| 20260503014249 | 41 | 41 | 6.0 | 11.0 | 0.00 | 0.00 | 0.00 | 74 | 1018.6 |
| 20260503013746 | 41 | 356 | 0.0 | 9.0 | 0.00 | 0.00 | 0.00 | 74 | 1018.9 |
| 20260503013244 | 41 | 53 | 2.0 | 6.0 | 0.00 | 0.00 | 0.00 | 74 | 1018.4 |
| 20260503012741 | 41 | 43 | 4.0 | 4.0 | 0.00 | 0.00 | 0.00 | 74 | 1018.6 |
| 20260503012238 | 41 | 8 | 0.0 | 4.0 | 0.00 | 0.00 | 0.00 | 74 | 1018.5 |
| 20260503011734 | 41 | 81 | 2.0 | 3.0 | 0.00 | 0.00 | 0.00 | 74 | 1018.5 |
| 20260503011232 | 42 | 4 | 2.0 | 5.0 | 0.00 | 0.00 | 0.00 | 74 | 1018.7 |
| 20260503010727 | 42 | 15 | 0.0 | 3.0 | 0.00 | 0.00 | 0.00 | 73 | 1018.5 |
| 20260503010225 | 42 | 83 | 3.0 | 7.0 | 0.00 | 0.00 | 0.00 | 73 | 1018.4 |
| 20260503005722 | 42 | 65 | 4.0 | 10.0 | 0.00 | 0.00 | 0.00 | 74 | 1018.5 |
| 20260503005219 | 42 | 9 | 6.0 | 10.0 | 0.00 | 0.00 | 0.00 | 74 | 1018.4 |
| 20260503004715 | 42 | 110 | 2.0 | 4.0 | 0.00 | 0.00 | 0.00 | 75 | 1018.3 |
| 20260503004214 | 42 | 30 | 2.0 | 3.0 | 0.00 | 0.00 | 0.00 | 75 | 1018.3 |
| 20260503003711 | 42 | 74 | 3.0 | 3.0 | 0.00 | 0.00 | 0.00 | 75 | 1018.1 |
| 20260503003208 | 42 | 90 | 2.0 | 2.0 | 0.00 | 0.00 | 0.00 | 74 | 1018.0 |
| 20260503002704 | 42 | 80 | 5.0 | 5.0 | 0.00 | 0.00 | 0.00 | 74 | 1017.9 |
| 20260503002201 | 42 | 52 | 3.0 | 6.0 | 0.00 | 0.00 | 0.00 | 74 | 1017.9 |
| 20260503001657 | 42 | 35 | 6.0 | 8.0 | 0.00 | 0.00 | 0.00 | 74 | 1018.0 |
| 20260503001154 | 42 | 94 | 3.0 | 5.0 | 0.00 | 0.00 | 0.00 | 73 | 1018.0 |
| 20260503000652 | 42 | 57 | 5.0 | 6.0 | 0.00 | 0.00 | 0.00 | 73 | 1017.9 |
| 20260503000149 | 43 | 30 | 2.0 | 8.0 | 0.00 | 0.00 | 0.00 | 72 | 1017.6 |
| 20260502235645 | 43 | 79 | 4.0 | 5.0 | 0.00 | 0.00 | 0.00 | 71 | 1017.7 |
| 20260502235144 | 43 | 18 | 5.0 | 12.0 | 0.00 | 0.00 | 0.00 | 70 | 1017.5 |
| 20260502234639 | 43 | 23 | 3.0 | 5.0 | 0.00 | 0.00 | 0.00 | 70 | 1017.6 |
| 20260502234137 | 43 | 27 | 5.0 | 8.0 | 0.00 | 0.00 | 0.00 | 70 | 1017.6 |
| 20260502233632 | 44 | 62 | 5.0 | 13.0 | 0.00 | 0.00 | 0.00 | 69 | 1017.5 |
| 20260502233129 | 44 | 0 | 2.0 | 9.0 | 0.00 | 0.00 | 0.00 | 69 | 1017.5 |
| 20260502232625 | 44 | 307 | 2.0 | 9.0 | 0.00 | 0.00 | 0.00 | 69 | 1017.2 |
| 20260502232123 | 44 | 3 | 2.0 | 9.0 | 0.00 | 0.00 | 0.00 | 68 | 1017.4 |
| 20260502231619 | 45 | 337 | 3.0 | 9.0 | 0.00 | 0.00 | 0.00 | 68 | 1017.3 |
| 20260502231118 | 45 | 30 | 6.0 | 10.0 | 0.00 | 0.00 | 0.00 | 68 | 1017.2 |
| 20260502230615 | 45 | 24 | 4.0 | 8.0 | 0.00 | 0.00 | 0.00 | 68 | 1017.1 |
| 20260502230114 | 45 | 26 | 7.0 | 14.0 | 0.00 | 0.00 | 0.00 | 67 | 1017.0 |
| 20260502225609 | 46 | 331 | 4.0 | 7.0 | 0.00 | 0.00 | 0.00 | 66 | 1016.9 |
| 20260502225106 | 46 | 19 | 5.0 | 11.0 | 0.00 | 0.00 | 0.00 | 65 | 1017.0 |
| 20260502224602 | 46 | 60 | 3.0 | 15.0 | 0.00 | 0.00 | 0.00 | 64 | 1016.8 |
| 20260502224059 | 46 | 11 | 6.0 | 12.0 | 0.00 | 0.00 | 0.00 | 62 | 1016.8 |
| 20260502223557 | 47 | 288 | 6.0 | 7.0 | 0.00 | 0.00 | 0.00 | 60 | 1016.8 |
| 20260502223055 | 47 | 311 | 15.0 | 19.0 | 0.00 | 0.00 | 0.00 | 60 | 1016.7 |
| 20260502222552 | 47 | 0 | 1.0 | 3.0 | 0.00 | 0.00 | 0.00 | 61 | 1016.6 |
| 20260502222048 | 47 | 95 | 3.0 | 11.0 | 0.00 | 0.00 | 0.00 | 63 | 1016.8 |
| 20260502221544 | 47 | 19 | 3.0 | 7.0 | 0.00 | 0.00 | 0.00 | 62 | 1016.5 |
| 20260502221042 | 47 | 14 | 12.0 | 15.0 | 0.00 | 0.00 | 0.00 | 60 | 1016.7 |
| 20260502220537 | 48 | 59 | 5.0 | 11.0 | 0.00 | 0.00 | 0.00 | 55 | 1016.6 |
| 20260502220034 | 48 | 27 | 9.0 | 10.0 | 0.00 | 0.00 | 0.00 | 53 | 1016.5 |
| 20260502215531 | 48 | 342 | 2.0 | 13.0 | 0.00 | 0.00 | 0.00 | 52 | 1016.5 |
| 20260502215028 | 48 | 275 | 4.0 | 10.0 | 0.00 | 0.00 | 0.00 | 52 | 1016.4 |
| 20260502214525 | 49 | 239 | 2.0 | 9.0 | 0.00 | 0.00 | 0.00 | 51 | 1016.3 |
| 20260502214023 | 48 | 301 | 6.0 | 11.0 | 0.00 | 0.00 | 0.00 | 51 | 1016.4 |
| 20260502213519 | 49 | 290 | 5.0 | 9.0 | 0.00 | 0.00 | 0.00 | 51 | 1016.3 |
| 20260502213018 | 48 | 312 | 7.0 | 10.0 | 0.00 | 0.00 | 0.00 | 50 | 1016.3 |
| 20260502212516 | 48 | 306 | 4.0 | 12.0 | 0.00 | 0.00 | 0.00 | 53 | 1016.2 |
| 20260502212013 | 48 | 314 | 5.0 | 9.0 | 0.00 | 0.00 | 0.00 | 51 | 1016.2 |
| 20260502211509 | 48 | 309 | 10.0 | 20.0 | 0.00 | 0.00 | 0.00 | 51 | 1016.2 |
| 20260502211006 | 49 | 293 | 8.0 | 13.0 | 0.00 | 0.00 | 0.00 | 48 | 1016.1 |
| 20260502210503 | 50 | 246 | 2.0 | 7.0 | 0.00 | 0.00 | 0.00 | 49 | 1016.1 |
| 20260502210000 | 49 | 355 | 4.0 | 11.0 | 0.00 | 0.00 | 0.00 | 49 | 1016.1 |
| 20260502205456 | 49 | 299 | 12.0 | 15.0 | 0.00 | 0.00 | 0.00 | 49 | 1016.1 |
| 20260502204953 | 49 | 318 | 6.0 | 11.0 | 0.00 | 0.00 | 0.00 | 50 | 1016.1 |
| 20260502204450 | 50 | 292 | 4.0 | 9.0 | 0.00 | 0.00 | 0.00 | 50 | 1016.1 |
| 20260502203948 | 49 | 315 | 4.0 | 7.0 | 0.00 | 0.00 | 0.00 | 50 | 1016.2 |
| 20260502203445 | 49 | 307 | 3.0 | 9.0 | 0.00 | 0.00 | 0.00 | 49 | 1016.1 |
| 20260502202941 | 49 | 290 | 6.0 | 13.0 | 0.00 | 0.00 | 0.00 | 50 | 1016.1 |
| 20260502202438 | 48 | 328 | 1.0 | 14.0 | 0.00 | 0.00 | 0.00 | 51 | 1016.1 |
| 20260502201936 | 49 | 326 | 9.0 | 16.0 | 0.00 | 0.00 | 0.00 | 49 | 1016.2 |
| 20260502201432 | 49 | 39 | 7.0 | 12.0 | 0.00 | 0.00 | 0.00 | 50 | 1016.2 |
| 20260502200929 | 49 | 294 | 4.0 | 14.0 | 0.00 | 0.00 | 0.00 | 48 | 1016.3 |
| 20260502200424 | 49 | 295 | 7.0 | 15.0 | 0.00 | 0.00 | 0.00 | 50 | 1016.1 |
| 20260502195923 | 50 | 343 | 8.0 | 11.0 | 0.00 | 0.00 | 0.00 | 49 | 1016.2 |
| 20260502195419 | 50 | 162 | 2.0 | 9.0 | 0.00 | 0.00 | 0.00 | 51 | 1016.1 |
| 20260502194916 | 49 | 338 | 7.0 | 14.0 | 0.00 | 0.00 | 0.00 | 50 | 1016.2 |
| 20260502194413 | 49 | 322 | 6.0 | 12.0 | 0.00 | 0.00 | 0.00 | 49 | 1016.3 |
| 20260502193909 | 49 | 308 | 8.0 | 12.0 | 0.00 | 0.00 | 0.00 | 49 | 1016.5 |
| 20260502193406 | 49 | 19 | 0.0 | 12.0 | 0.00 | 0.00 | 0.00 | 49 | 1016.4 |
| 20260502192901 | 49 | 345 | 6.0 | 13.0 | 0.00 | 0.00 | 0.00 | 48 | 1016.3 |
| 20260502192359 | 49 | 320 | 13.0 | 16.0 | 0.00 | 0.00 | 0.00 | 49 | 1016.5 |
| 20260502191855 | 50 | 299 | 7.0 | 11.0 | 0.00 | 0.00 | 0.00 | 49 | 1016.5 |
| 20260502191354 | 49 | 352 | 2.0 | 11.0 | 0.00 | 0.00 | 0.00 | 48 | 1016.7 |
| 20260502190851 | 49 | 52 | 4.0 | 9.0 | 0.00 | 0.00 | 0.00 | 50 | 1016.9 |
| 20260502190348 | 49 | 284 | 7.0 | 7.0 | 0.00 | 0.00 | 0.00 | 47 | 1016.8 |
| 20260502185844 | 50 | 258 | 3.0 | 4.0 | 0.00 | 0.00 | 0.00 | 49 | 1016.8 |
| 20260502185339 | 49 | 294 | 2.0 | 13.0 | 0.00 | 0.00 | 0.00 | 48 | 1016.9 |
| 20260502184837 | 49 | 254 | 8.0 | 16.0 | 0.00 | 0.00 | 0.00 | 48 | 1017.0 |
| 20260502184332 | 49 | 309 | 15.0 | 18.0 | 0.00 | 0.00 | 0.00 | 49 | 1016.8 |
| 20260502183829 | 50 | 254 | 3.0 | 18.0 | 0.00 | 0.00 | 0.00 | 47 | 1016.6 |
| 20260502183325 | 50 | 251 | 7.0 | 13.0 | 0.00 | 0.00 | 0.00 | 47 | 1016.7 |
| 20260502182820 | 49 | 320 | 9.0 | 16.0 | 0.00 | 0.00 | 0.00 | 48 | 1016.9 |
| 20260502182316 | 50 | 292 | 8.0 | 15.0 | 0.00 | 0.00 | 0.00 | 48 | 1016.9 |
| 20260502181813 | 50 | 274 | 2.0 | 12.0 | 0.00 | 0.00 | 0.00 | 50 | 1016.8 |
| 20260502181311 | 48 | 259 | 5.0 | 17.0 | 0.00 | 0.00 | 0.00 | 50 | 1017.0 |
| 20260502180809 | 49 | 300 | 19.0 | 19.0 | 0.00 | 0.00 | 0.00 | 49 | 1017.1 |
| 20260502180306 | 49 | 255 | 8.0 | 20.0 | 0.00 | 0.00 | 0.00 | 51 | 1016.9 |